Simultaneous Nadir Overpasses (SNOs) Predictions

Prediction of SNOs between FY3D and AQUA Satellite Orbit:

Table of predicted SNOs for the next 14.0 days since TLE Epoch: 6/8/2024
Index Date (FY3D) Time (FY3D) Lat,Lon (FY3D) SZA (FY3D ) Date (AQUA) Time (AQUA) Lat,Lon (AQUA) SZA (AQUA ) Distance(km) Time Diff (sec)
1 06/09/2024 06:52:30 79.55, 56.93 57.19 06/09/2024 06:53:39 79.54, 56.99 57.16 1.18 69
2 06/09/2024 07:43:08 -79.30,-133.69 123.18 06/09/2024 07:42:54 -79.30,-133.69 123.18 0.03 14
3 06/11/2024 18:56:08 -79.50, 56.51 123.06 06/11/2024 18:57:19 -79.50, 56.39 123.07 2.57 71
4 06/11/2024 19:46:48 79.33,-134.79 56.70 06/11/2024 19:46:37 79.33,-134.78 56.70 0.28 11
5 06/14/2024 06:59:49 79.56, 55.04 56.92 06/14/2024 07:01:01 79.56, 55.10 56.89 1.19 72
6 06/14/2024 07:50:27 -79.32,-135.55 123.46 06/14/2024 07:50:16 -79.32,-135.54 123.46 0.39 11
7 06/16/2024 19:03:27 -79.53, 54.52 123.23 06/16/2024 19:04:38 -79.53, 54.48 123.25 0.80 71
8 06/16/2024 19:54:06 79.33,-136.52 56.48 06/16/2024 19:53:55 79.33,-136.48 56.48 0.92 11
9 06/19/2024 07:07:04 79.48, 54.03 56.67 06/19/2024 07:08:14 79.49, 53.87 56.66 3.23 70
10 06/19/2024 07:57:46 -79.37,-137.65 123.52 06/19/2024 07:57:32 -79.36,-137.51 123.53 3.06 14
11 06/21/2024 19:10:43 -79.49, 53.13 123.33 06/21/2024 19:11:49 -79.50, 52.98 123.33 3.12 66



Historial Predications of SNOs between FY3D and AQUA
